Somerville, NJ

1:15 PM EST on November 17, 2019 (GMT -0500)
Somerset

Weather History for KSMQ - October, 2019

Change the Weather History Date:

Wednesday, October 23, 2019

  Actual Average Record
Temperature  
Mean Temperature 54 °F -  
Max Temperature 66 °F 63 °F 86 °F (1947)
Min Temperature 39 °F 37 °F 25 °F (1974)
Degree Days  
Heating Degree Days 11    
Growing Degree Days 4 (Base 50)    
Moisture  
Dew Point 48 °F    
Average Humidity 78    
Maximum Humidity 97    
Minimum Humidity 29    
Precipitation  
Precipitation 0.01 in - - ()
Sea Level Pressure  
Sea Level Pressure 29.90 in    
Wind  
Wind Speed 1 mph (WNW)    
Max Wind Speed 10 mph    
Max Gust Speed 24 mph    
Visibility 7 miles    
Events Rain    
Averages and records for this station are not official NWS values.
T = Trace of Precipitation, MM = Missing Value Source: NWS Daily Summary

Daily Weather History Graph

Daily Weather History Graph

Search for Another Location

Airport or City:

Astronomy

Oct. 23, 2019 Rise Set
Actual Time 7:18 AM EDT 6:07 PM EDT
Civil Twilight 6:50 AM EDT 6:34 PM EDT
Nautical Twilight 6:18 AM EDT 7:06 PM EDT
Astronomical Twilight 5:46 AM EDT 7:38 PM EDT
Moon 1:31 AM EDT (10/23) 3:58 PM EDT (10/23)
Length of Visible Light 11h 44m
Length of Day
10h 48m
Waning Crescent, 27% of the Moon is Illuminated
Oct 23
Waning Crescent
Oct 27
New
Nov 4
First Quarter
Nov 12
Full
Nov 19
Last Quarter

Hourly Weather History & Observations

Time (EDT) Temp. Dew Point Humidity Pressure Visibility Wind Dir Wind Speed Gust Speed Precip Events Conditions
12:11 AM 62.1 °F 60.1 °F 93% 29.78 in 2.5 mi Calm Calm - 0.01 in Rain Light Rain
12:18 AM 62.1 °F 60.1 °F 93% 29.78 in 3.0 mi NW 5.8 mph - 0.01 in Rain Light Rain
12:30 AM 61.0 °F 59.0 °F 93% 29.77 in 10.0 mi Calm Calm - 0.01 in   Overcast
12:53 AM 61.0 °F 59.0 °F 93% 29.78 in 10.0 mi Calm Calm - 0.01 in   Overcast
1:53 AM 60.1 °F 57.9 °F 93% 29.78 in 10.0 mi Calm Calm - N/A   Overcast
2:13 AM 59.0 °F 57.9 °F 96% 29.77 in 10.0 mi Calm Calm - N/A   Mostly Cloudy
2:32 AM 57.9 °F 57.0 °F 97% 29.77 in 1.8 mi Calm Calm - N/A   Mostly Cloudy
2:46 AM 57.0 °F 55.9 °F 96% 29.77 in 1.0 mi Calm Calm - N/A   Scattered Clouds
2:53 AM 57.0 °F 55.9 °F 96% 29.77 in 1.5 mi Calm Calm - N/A   Scattered Clouds
3:15 AM 55.9 °F 54.0 °F 93% 29.77 in 0.8 mi Calm Calm - N/A   Scattered Clouds
3:30 AM 55.0 °F 54.0 °F 96% 29.77 in 0.8 mi Calm Calm - N/A   Mist
3:43 AM 55.0 °F 53.1 °F 93% 29.77 in 1.2 mi Calm Calm - N/A   Partly Cloudy
3:47 AM 55.4 °F 53.6 °F 94% 29.78 in 3.0 mi Calm Calm - N/A   Clear
3:53 AM 55.0 °F 54.0 °F 96% 29.78 in 9.0 mi Calm Calm - N/A   Clear
4:53 AM 54.0 °F 53.1 °F 97% 29.81 in 10.0 mi Calm Calm - N/A   Clear
5:53 AM 51.1 °F 50.0 °F 96% 29.83 in 10.0 mi Calm Calm - N/A   Clear
6:53 AM 52.0 °F 50.0 °F 93% 29.86 in 10.0 mi Calm Calm - N/A   Clear
7:26 AM 50.0 °F 48.9 °F 96% 29.87 in 1.8 mi Calm Calm - N/A   Clear
7:33 AM 48.9 °F 48.0 °F 97% 29.88 in 3.0 mi Calm Calm - N/A   Clear
7:53 AM 50.0 °F 48.0 °F 93% 29.89 in 6.0 mi Calm Calm - N/A   Clear
8:53 AM 55.9 °F 52.0 °F 87% 29.93 in 10.0 mi Variable 3.5 mph - N/A   Clear
9:53 AM 59.0 °F 50.0 °F 72% 29.95 in 10.0 mi Variable 3.5 mph - N/A   Clear
10:53 AM 61.0 °F 46.0 °F 58% 29.95 in 10.0 mi West 6.9 mph - N/A   Clear
11:53 AM 63.0 °F 44.1 °F 50% 29.96 in 10.0 mi West 8.1 mph - N/A   Clear
12:53 PM 64.0 °F 37.9 °F 38% 29.96 in 10.0 mi Variable 6.9 mph 24.2 mph N/A   Clear
1:53 PM 66.0 °F 35.1 °F 32% 29.96 in 10.0 mi WNW 8.1 mph 20.7 mph N/A   Clear
2:53 PM 66.0 °F 35.1 °F 32% 29.96 in 10.0 mi Variable 5.8 mph - N/A   Clear
3:53 PM 66.0 °F 33.1 °F 29% 29.98 in 10.0 mi WNW 10.4 mph 18.4 mph N/A   Clear
4:53 PM 64.0 °F 34.0 °F 33% 30.00 in 10.0 mi Variable 4.6 mph - N/A   Clear
5:53 PM 62.1 °F 35.1 °F 37% 30.02 in 10.0 mi Variable 4.6 mph - N/A   Clear
6:53 PM 57.9 °F 35.1 °F 42% 30.06 in 10.0 mi Calm Calm - N/A   Clear
7:53 PM 50.0 °F 37.9 °F 63% 30.10 in 10.0 mi Calm Calm - N/A   Clear
8:53 PM 45.0 °F 39.0 °F 80% 30.13 in 10.0 mi Calm Calm - N/A   Clear
9:53 PM 42.1 °F 39.0 °F 89% 30.15 in 10.0 mi Calm Calm - N/A   Clear
10:53 PM 42.1 °F 37.9 °F 85% 30.17 in 10.0 mi Calm Calm - N/A   Clear
11:53 PM 39.0 °F 37.0 °F 93% 30.18 in 10.0 mi Calm Calm - N/A   Clear